QPF
0.11 0.11 0.10 0.11 0.11 0.13 0.15 0.18 0.17 0.12 0.12 0.10 0.07 0.06 0.07 0.06 0.05 0.06 0.07 0.04 0.02 0.02 0.02 0.04 0.05 0.05 0.06 0.07 0.06 0.05 0.04 0.06 0.05 0.03 0.02 0.02 0.03 0.04 0.04 0.04 0.04 0.04 0.03
0.07 0.07 0.08 0.09 0.08 0.12 0.14 0.15 0.17 0.16 0.13 0.11 0.09 0.07 0.08 0.06 0.05 0.05 0.05 0.05 0.04 0.02 0.02 0.04 0.05 0.05 0.07 0.09 0.08 0.06 0.05 0.05 0.04 0.03 0.03 0.04 0.04 0.04 0.04 0.04 0.04 0.03 0.03
0.06 0.06 0.06 0.06 0.06 0.06 0.08 0.12 0.14 0.16 0.15 0.11 0.09 0.07 0.07 0.07 0.07 0.06 0.06 0.08 0.06 0.05 0.05 0.04 0.03 0.05 0.07 0.09 0.10 0.08 0.07 0.05 0.04 0.03 0.03 0.04 0.04 0.03 0.03 0.04 0.04 0.04 0.03
0.06 0.06 0.06 0.06 0.07 0.05 0.05 0.08 0.10 0.14 0.13 0.10 0.09 0.08 0.08 0.08 0.07 0.07 0.07 0.08 0.10 0.09 0.07 0.05 0.04 0.04 0.05 0.07 0.11 0.12 0.10 0.08 0.05 0.03 0.02 0.03 0.03 0.02 0.03 0.03 0.03 0.03 0.03
0.07 0.08 0.08 0.09 0.09 0.07 0.07 0.07 0.10 0.14 0.16 0.15 0.14 0.14 0.13 0.10 0.08 0.07 0.08 0.07 0.08 0.10 0.10 0.07 0.04 0.04 0.05 0.09 0.13 0.14 0.12 0.09 0.05 0.04 0.03 0.03 0.03 0.02 0.03 0.03 0.03 0.03 0.03
0.10 0.12 0.13 0.11 0.09 0.09 0.10 0.11 0.12 0.15 0.18 0.16 0.12 0.16 0.16 0.13 0.11 0.08 0.08 0.06 0.05 0.06 0.07 0.06 0.07 0.07 0.11 0.10 0.11 0.08 0.07 0.07 0.06 0.05 0.06 0.06 0.05 0.05 0.04 0.03 0.03 0.04 0.04
0.09 0.10 0.12 0.15 0.13 0.12 0.14 0.15 0.15 0.15 0.16 0.14 0.15 0.14 0.14 0.14 0.14 0.12 0.08 0.07 0.06 0.06 0.07 0.09 0.09 0.12 0.16 0.10 0.05 0.03 0.04 0.06 0.07 0.06 0.07 0.06 0.06 0.06 0.04 0.03 0.03 0.03 0.03
0.05 0.06 0.09 0.10 0.13 0.14 0.14 0.15 0.14 0.13 0.15 0.14 0.13 0.13 0.14 0.15 0.12 0.10 0.09 0.10 0.10 0.10 0.10 0.10 0.11 0.11 0.10 0.08 0.05 0.03 0.03 0.04 0.07 0.08 0.07 0.06 0.05 0.05 0.04 0.03 0.03 0.03 0.03
0.05 0.05 0.06 0.11 0.18 0.17 0.14 0.12 0.10 0.10 0.12 0.11 0.12 0.11 0.12 0.13 0.10 0.07 0.07 0.09 0.09 0.08 0.09 0.09 0.08 0.08 0.08 0.08 0.08 0.05 0.04 0.04 0.05 0.08 0.09 0.08 0.06 0.06 0.06 0.06 0.06 0.06 0.05
0.04 0.05 0.07 0.13 0.16 0.18 0.18 0.14 0.13 0.11 0.11 0.10 0.09 0.10 0.08 0.08 0.08 0.08 0.08 0.06 0.06 0.06 0.07 0.05 0.05 0.08 0.06 0.07 0.08 0.06 0.03 0.02 0.02 0.05 0.08 0.09 0.08 0.06 0.06 0.05 0.05 0.05 0.05
0.03 0.05 0.10 0.14 0.12 0.12 0.12 0.10 0.11 0.10 0.10 0.10 0.10 0.11 0.10 0.09 0.09 0.09 0.10 0.08 0.07 0.06 0.04 0.03 0.03 0.05 0.05 0.07 0.08 0.05 0.04 0.03 0.02 0.02 0.04 0.05 0.06 0.05 0.04 0.04 0.04 0.05 0.04
0.02 0.03 0.06 0.08 0.08 0.07 0.08 0.09 0.10 0.10 0.11 0.12 0.12 0.10 0.10 0.10 0.10 0.10 0.09 0.09 0.08 0.05 0.03 0.03 0.02 0.02 0.03 0.05 0.06 0.06 0.05 0.02 0.01 0.01 0.01 0.02 0.02 0.02 0.03 0.04 0.03 0.02 0.03
0.02 0.03 0.04 0.07 0.11 0.11 0.09 0.07 0.07 0.08 0.10 0.10 0.11 0.11 0.10 0.10 0.10 0.10 0.08 0.07 0.07 0.06 0.05 0.03 0.02 0.02 0.03 0.06 0.10 0.11 0.07 0.03 0.01 0.00 0.00 0.00 0.00 0.01 0.01 0.02 0.03 0.02 0.02
0.01 0.03 0.05 0.08 0.09 0.09 0.07 0.07 0.06 0.05 0.07 0.08 0.08 0.11 0.13 0.12 0.10 0.09 0.09 0.09 0.09 0.08 0.06 0.04 0.02 0.02 0.04 0.06 0.13 0.16 0.11 0.05 0.02 0.01 0.01 0.01 0.01 0.01 0.01 0.01 0.02 0.01 0.01
0.02 0.03 0.03 0.05 0.06 0.06 0.05 0.05 0.06 0.08 0.09 0.09 0.08 0.10 0.10 0.09 0.08 0.07 0.08 0.10 0.09 0.08 0.07 0.04 0.03 0.02 0.04 0.07 0.11 0.09 0.10 0.08 0.06 0.04 0.02 0.01 0.02 0.03 0.04 0.03 0.04 0.03 0.03
0.03 0.03 0.03 0.04 0.05 0.06 0.06 0.06 0.07 0.09 0.09 0.08 0.09 0.09 0.09 0.06 0.06 0.06 0.06 0.05 0.05 0.07 0.06 0.03 0.02 0.02 0.04 0.05 0.07 0.07 0.06 0.06 0.05 0.04 0.03 0.02 0.02 0.03 0.05 0.07 0.07 0.06 0.05
0.03 0.03 0.03 0.04 0.05 0.05 0.06 0.06 0.07 0.08 0.07 0.08 0.07 0.07 0.07 0.05 0.05 0.06 0.07 0.05 0.04 0.06 0.06 0.03 0.03 0.04 0.05 0.06 0.07 0.06 0.05 0.05 0.04 0.06 0.05 0.04 0.03 0.03 0.03 0.03 0.03 0.03 0.03
0.04 0.04 0.04 0.04 0.04 0.05 0.05 0.06 0.07 0.07 0.06 0.06 0.05 0.06 0.06 0.06 0.07 0.08 0.08 0.07 0.06 0.07 0.07 0.06 0.05 0.07 0.07 0.05 0.06 0.07 0.06 0.05 0.04 0.04 0.05 0.05 0.04 0.03 0.03 0.03 0.02 0.02 0.02
0.04 0.04 0.04 0.03 0.04 0.04 0.06 0.06 0.06 0.06 0.06 0.04 0.04 0.05 0.05 0.06 0.08 0.09 0.07 0.07 0.07 0.06 0.07 0.07 0.06 0.07 0.05 0.04 0.05 0.05 0.06 0.06 0.05 0.03 0.03 0.03 0.03 0.02 0.02 0.02 0.02 0.01 0.01
0.03 0.03 0.03 0.03 0.04 0.04 0.05 0.05 0.05 0.06 0.06 0.05 0.06 0.06 0.07 0.07 0.08 0.09 0.11 0.11 0.08 0.08 0.09 0.08 0.07 0.07 0.07 0.05 0.05 0.06 0.06 0.06 0.05 0.03 0.03 0.03 0.03 0.02 0.02 0.01 0.01 0.01 0.01
0.03 0.03 0.03 0.03 0.03 0.02 0.02 0.04 0.04 0.05 0.06 0.05 0.07 0.08 0.07 0.07 0.08 0.10 0.08 0.07 0.07 0.09 0.10 0.10 0.09 0.09 0.08 0.08 0.06 0.06 0.06 0.05 0.05 0.03 0.04 0.03 0.04 0.03 0.02 0.01 0.01 0.01 0.01
0.04 0.04 0.03 0.03 0.02 0.01 0.01 0.02 0.04 0.04 0.05 0.05 0.06 0.07 0.06 0.05 0.03 0.05 0.08 0.08 0.09 0.10 0.10 0.10 0.09 0.08 0.09 0.08 0.07 0.07 0.06 0.06 0.05 0.04 0.05 0.03 0.03 0.03 0.02 0.02 0.02 0.02 0.02
0.04 0.04 0.04 0.03 0.02 0.02 0.03 0.03 0.03 0.04 0.04 0.05 0.05 0.05 0.04 0.02 0.02 0.04 0.06 0.06 0.07 0.09 0.09 0.10 0.09 0.08 0.08 0.08 0.09 0.08 0.08 0.06 0.06 0.06 0.06 0.05 0.04 0.04 0.03 0.03 0.04 0.04 0.03
0.04 0.03 0.02 0.02 0.02 0.03 0.04 0.03 0.03 0.03 0.04 0.04 0.04 0.03 0.04 0.04 0.04 0.05 0.06 0.06 0.06 0.04 0.04 0.05 0.06 0.06 0.06 0.06 0.07 0.08 0.09 0.10 0.09 0.08 0.08 0.07 0.06 0.05 0.03 0.04 0.05 0.04 0.04
0.03 0.03 0.02 0.02 0.03 0.03 0.03 0.03 0.03 0.03 0.04 0.05 0.05 0.05 0.04 0.03 0.03 0.04 0.06 0.07 0.06 0.05 0.04 0.05 0.05 0.05 0.04 0.05 0.06 0.09 0.11 0.11 0.09 0.08 0.06 0.06 0.06 0.05 0.04 0.04 0.05 0.05 0.05
0.04 0.03 0.03 0.03 0.03 0.03 0.03 0.03 0.03 0.03 0.03 0.03 0.04 0.05 0.03 0.02 0.03 0.03 0.03 0.06 0.06 0.05 0.04 0.06 0.06 0.07 0.07 0.08 0.07 0.08 0.09 0.10 0.09 0.07 0.06 0.05 0.06 0.06 0.05 0.04 0.04 0.04 0.04
MSLP
1016.65 1016.60 1016.47 1016.34 1016.24 1016.21 1016.23 1016.27 1016.28 1016.21 1016.02 1015.72 1015.32 1014.86 1014.42 1014.05 1013.79 1013.68 1013.70 1013.83 1014.03 1014.25 1014.47 1014.66 1014.80 1014.89 1014.96 1015.00 1015.03 1015.07 1015.13 1015.22 1015.33 1015.49 1015.69 1015.92 1016.18 1016.44 1016.68 1016.89 1017.05 1017.14 1017.19
1016.71 1016.66 1016.53 1016.38 1016.25 1016.18 1016.15 1016.14 1016.12 1016.04 1015.87 1015.60 1015.25 1014.83 1014.40 1014.00 1013.69 1013.49 1013.40 1013.43 1013.55 1013.74 1013.96 1014.17 1014.37 1014.52 1014.63 1014.69 1014.71 1014.70 1014.69 1014.69 1014.74 1014.85 1015.02 1015.27 1015.57 1015.88 1016.19 1016.44 1016.63 1016.73 1016.76
1016.64 1016.61 1016.50 1016.37 1016.24 1016.15 1016.08 1016.05 1016.00 1015.92 1015.77 1015.54 1015.23 1014.84 1014.43 1014.01 1013.63 1013.33 1013.13 1013.04 1013.07 1013.19 1013.39 1013.63 1013.88 1014.11 1014.28 1014.38 1014.41 1014.37 1014.30 1014.22 1014.19 1014.23 1014.36 1014.60 1014.90 1015.25 1015.59 1015.87 1016.07 1016.17 1016.18
1016.45 1016.45 1016.40 1016.31 1016.22 1016.13 1016.06 1016.00 1015.94 1015.86 1015.73 1015.53 1015.26 1014.92 1014.51 1014.08 1013.65 1013.25 1012.93 1012.72 1012.64 1012.68 1012.84 1013.09 1013.38 1013.67 1013.92 1014.07 1014.12 1014.08 1013.97 1013.83 1013.72 1013.69 1013.77 1013.96 1014.24 1014.58 1014.93 1015.22 1015.41 1015.49 1015.47
1016.15 1016.21 1016.23 1016.21 1016.18 1016.13 1016.07 1016.01 1015.94 1015.85 1015.74 1015.58 1015.35 1015.05 1014.67 1014.24 1013.76 1013.29 1012.87 1012.54 1012.34 1012.29 1012.39 1012.62 1012.93 1013.27 1013.57 1013.79 1013.88 1013.86 1013.73 1013.55 1013.39 1013.29 1013.30 1013.43 1013.66 1013.97 1014.28 1014.54 1014.70 1014.75 1014.69
1015.78 1015.90 1016.00 1016.08 1016.12 1016.12 1016.09 1016.03 1015.96 1015.88 1015.78 1015.65 1015.47 1015.22 1014.89 1014.48 1014.00 1013.49 1012.98 1012.55 1012.24 1012.09 1012.11 1012.30 1012.60 1012.96 1013.30 1013.56 1013.71 1013.71 1013.60 1013.41 1013.21 1013.06 1013.00 1013.06 1013.23 1013.47 1013.72 1013.92 1014.04 1014.03 1013.92
1015.38 1015.55 1015.73 1015.90 1016.01 1016.07 1016.08 1016.04 1015.97 1015.89 1015.81 1015.72 1015.59 1015.41 1015.15 1014.80 1014.34 1013.82 1013.28 1012.78 1012.37 1012.12 1012.05 1012.16 1012.42 1012.76 1013.12 1013.42 1013.60 1013.65 1013.57 1013.40 1013.19 1013.01 1012.90 1012.90 1012.99 1013.14 1013.32 1013.45 1013.49 1013.43 1013.28
1014.96 1015.17 1015.42 1015.65 1015.84 1015.95 1015.99 1015.97 1015.92 1015.85 1015.79 1015.73 1015.67 1015.57 1015.39 1015.12 1014.74 1014.26 1013.71 1013.18 1012.71 1012.37 1012.20 1012.22 1012.40 1012.70 1013.04 1013.35 1013.57 1013.67 1013.63 1013.50 1013.31 1013.13 1012.99 1012.93 1012.95 1013.03 1013.11 1013.16 1013.14 1013.02 1012.82
1014.56 1014.78 1015.06 1015.34 1015.57 1015.73 1015.80 1015.80 1015.75 1015.70 1015.66 1015.64 1015.64 1015.63 1015.55 1015.38 1015.10 1014.69 1014.19 1013.66 1013.15 1012.75 1012.49 1012.42 1012.51 1012.74 1013.04 1013.34 1013.58 1013.72 1013.74 1013.67 1013.52 1013.36 1013.22 1013.13 1013.09 1013.09 1013.10 1013.08 1012.99 1012.83 1012.60
1014.16 1014.37 1014.64 1014.94 1015.19 1015.37 1015.47 1015.49 1015.45 1015.41 1015.39 1015.41 1015.47 1015.53 1015.55 1015.49 1015.32 1015.01 1014.59 1014.10 1013.60 1013.16 1012.84 1012.67 1012.68 1012.82 1013.06 1013.33 1013.58 1013.76 1013.84 1013.83 1013.74 1013.62 1013.50 1013.40 1013.33 1013.28 1013.23 1013.16 1013.03 1012.84 1012.61
1013.77 1013.92 1014.16 1014.44 1014.70 1014.89 1015.00 1015.03 1015.02 1014.99 1014.98 1015.03 1015.12 1015.24 1015.35 1015.39 1015.33 1015.13 1014.80 1014.38 1013.92 1013.48 1013.12 1012.89 1012.82 1012.88 1013.06 1013.29 1013.53 1013.73 1013.86 1013.91 1013.90 1013.84 1013.76 1013.68 1013.60 1013.53 1013.45 1013.34 1013.19 1013.01 1012.80
1013.35 1013.44 1013.63 1013.87 1014.11 1014.30 1014.43 1014.48 1014.47 1014.45 1014.46 1014.51 1014.62 1014.78 1014.93 1015.05 1015.08 1014.98 1014.76 1014.43 1014.03 1013.63 1013.27 1013.00 1012.87 1012.87 1012.98 1013.17 1013.39 1013.60 1013.77 1013.89 1013.94 1013.94 1013.91 1013.87 1013.81 1013.75 1013.67 1013.56 1013.43 1013.27 1013.09
1012.89 1012.91 1013.04 1013.24 1013.46 1013.66 1013.79 1013.86 1013.88 1013.87 1013.87 1013.92 1014.02 1014.18 1014.35 1014.50 1014.59 1014.58 1014.46 1014.23 1013.91 1013.57 1013.24 1012.97 1012.81 1012.76 1012.82 1012.97 1013.17 1013.38 1013.57 1013.73 1013.84 1013.91 1013.94 1013.94 1013.93 1013.89 1013.84 1013.76 1013.67 1013.55 1013.43
1012.39 1012.36 1012.44 1012.60 1012.81 1013.01 1013.17 1013.26 1013.30 1013.30 1013.30 1013.33 1013.40 1013.52 1013.67 1013.83 1013.95 1014.00 1013.95 1013.81 1013.59 1013.32 1013.05 1012.81 1012.65 1012.58 1012.60 1012.71 1012.88 1013.07 1013.28 1013.46 1013.62 1013.74 1013.83 1013.89 1013.92 1013.94 1013.93 1013.91 1013.87 1013.81 1013.75
1011.87 1011.80 1011.85 1011.99 1012.20 1012.41 1012.60 1012.73 1012.80 1012.81 1012.80 1012.80 1012.82 1012.89 1013.00 1013.13 1013.25 1013.33 1013.34 1013.28 1013.15 1012.97 1012.77 1012.58 1012.44 1012.36 1012.36 1012.44 1012.57 1012.75 1012.94 1013.14 1013.32 1013.48 1013.61 1013.73 1013.82 1013.89 1013.94 1013.98 1014.00 1014.01 1014.02
1011.33 1011.26 1011.30 1011.44 1011.66 1011.90 1012.13 1012.30 1012.40 1012.43 1012.41 1012.38 1012.35 1012.36 1012.40 1012.48 1012.58 1012.67 1012.73 1012.73 1012.69 1012.59 1012.47 1012.34 1012.23 1012.17 1012.16 1012.20 1012.30 1012.45 1012.62 1012.81 1012.99 1013.17 1013.34 1013.50 1013.64 1013.76 1013.87 1013.96 1014.05 1014.12 1014.18
1010.81 1010.76 1010.82 1010.98 1011.22 1011.50 1011.76 1011.97 1012.10 1012.15 1012.13 1012.07 1012.00 1011.95 1011.94 1011.97 1012.03 1012.12 1012.20 1012.26 1012.28 1012.27 1012.22 1012.15 1012.08 1012.03 1012.01 1012.03 1012.10 1012.21 1012.35 1012.52 1012.70 1012.88 1013.06 1013.24 1013.41 1013.56 1013.72 1013.86 1013.99 1014.11 1014.22
1010.32 1010.31 1010.40 1010.59 1010.85 1011.16 1011.45 1011.69 1011.85 1011.92 1011.90 1011.83 1011.73 1011.64 1011.58 1011.57 1011.61 1011.69 1011.79 1011.89 1011.97 1012.01 1012.03 1012.01 1011.98 1011.95 1011.93 1011.94 1011.98 1012.05 1012.16 1012.29 1012.45 1012.61 1012.79 1012.97 1013.14 1013.32 1013.48 1013.65 1013.81 1013.96 1014.11
1009.87 1009.90 1010.03 1010.24 1010.53 1010.84 1011.15 1011.41 1011.58 1011.66 1011.65 1011.58 1011.47 1011.36 1011.28 1011.25 1011.28 1011.36 1011.48 1011.61 1011.73 1011.82 1011.88 1011.91 1011.91 1011.90 1011.88 1011.87 1011.89 1011.94 1012.01 1012.11 1012.24 1012.38 1012.53 1012.68 1012.84 1013.01 1013.17 1013.34 1013.50 1013.67 1013.83
1009.45 1009.53 1009.68 1009.91 1010.19 1010.51 1010.81 1011.06 1011.23 1011.32 1011.31 1011.25 1011.14 1011.04 1010.97 1010.94 1010.98 1011.07 1011.21 1011.36 1011.51 1011.64 1011.73 1011.79 1011.81 1011.81 1011.80 1011.79 1011.80 1011.82 1011.87 1011.94 1012.03 1012.14 1012.26 1012.38 1012.51 1012.64 1012.78 1012.92 1013.07 1013.22 1013.39
1009.06 1009.17 1009.34 1009.56 1009.83 1010.11 1010.38 1010.61 1010.77 1010.84 1010.85 1010.79 1010.71 1010.63 1010.59 1010.59 1010.65 1010.76 1010.91 1011.08 1011.25 1011.40 1011.51 1011.59 1011.63 1011.64 1011.63 1011.63 1011.63 1011.65 1011.68 1011.74 1011.80 1011.88 1011.96 1012.04 1012.12 1012.21 1012.30 1012.40 1012.52 1012.66 1012.81
1008.68 1008.81 1008.98 1009.18 1009.42 1009.66 1009.88 1010.07 1010.19 1010.25 1010.26 1010.22 1010.17 1010.13 1010.12 1010.15 1010.24 1010.38 1010.55 1010.73 1010.91 1011.06 1011.18 1011.26 1011.30 1011.32 1011.33 1011.33 1011.35 1011.37 1011.40 1011.45 1011.51 1011.56 1011.61 1011.65 1011.69 1011.73 1011.77 1011.83 1011.91 1012.02 1012.15
1008.31 1008.45 1008.62 1008.80 1008.99 1009.18 1009.35 1009.49 1009.57 1009.61 1009.61 1009.59 1009.56 1009.55 1009.58 1009.65 1009.77 1009.93 1010.11 1010.29 1010.46 1010.60 1010.71 1010.78 1010.83 1010.85 1010.87 1010.89 1010.92 1010.96 1011.01 1011.06 1011.12 1011.16 1011.19 1011.21 1011.21 1011.21 1011.21 1011.23 1011.28 1011.35 1011.47
1007.96 1008.11 1008.27 1008.43 1008.59 1008.74 1008.86 1008.95 1008.99 1009.01 1009.00 1008.98 1008.98 1009.00 1009.05 1009.15 1009.28 1009.43 1009.60 1009.77 1009.92 1010.03 1010.12 1010.18 1010.21 1010.24 1010.26 1010.30 1010.35 1010.41 1010.48 1010.55 1010.62 1010.67 1010.70 1010.71 1010.70 1010.68 1010.66 1010.65 1010.67 1010.73 1010.83
1007.64 1007.80 1007.96 1008.12 1008.26 1008.38 1008.47 1008.53 1008.55 1008.54 1008.52 1008.50 1008.50 1008.53 1008.59 1008.69 1008.81 1008.95 1009.09 1009.22 1009.33 1009.40 1009.45 1009.48 1009.50 1009.51 1009.54 1009.58 1009.65 1009.73 1009.83 1009.93 1010.01 1010.08 1010.13 1010.15 1010.15 1010.14 1010.12 1010.11 1010.12 1010.17 1010.26
1007.36 1007.54 1007.72 1007.89 1008.04 1008.15 1008.23 1008.27 1008.28 1008.26 1008.23 1008.20 1008.19 1008.20 1008.25 1008.32 1008.41 1008.51 1008.60 1008.67 1008.72 1008.75 1008.75 1008.74 1008.73 1008.73 1008.74 1008.79 1008.86 1008.95 1009.07 1009.18 1009.29 1009.39 1009.46 1009.52 1009.55 1009.56 1009.57 1009.58 1009.61 1009.67 1009.75
Thickness
5784 5784 5783 5782 5782 5782 5780 5779 5779 5780 5780 5780 5781 5782 5781 5781 5779 5777 5774 5772 5770 5769 5768 5766 5764 5762 5761 5759 5758 5756 5754 5753 5751 5750 5748 5747 5746 5745 5743 5742 5741 5739 5738
5784 5783 5782 5781 5781 5781 5780 5779 5779 5779 5779 5779 5780 5781 5781 5781 5780 5778 5776 5774 5771 5770 5768 5767 5765 5763 5762 5760 5758 5757 5755 5754 5752 5751 5749 5748 5747 5745 5744 5742 5741 5740 5738
5783 5782 5781 5781 5781 5780 5780 5779 5778 5778 5778 5778 5778 5780 5781 5781 5780 5779 5778 5775 5773 5771 5770 5768 5766 5764 5762 5761 5759 5757 5756 5755 5753 5752 5750 5749 5748 5746 5744 5742 5741 5740 5739
5783 5781 5781 5781 5780 5780 5779 5778 5777 5775 5775 5775 5775 5777 5780 5780 5780 5780 5779 5777 5775 5773 5771 5769 5767 5765 5763 5761 5760 5758 5757 5756 5754 5752 5751 5749 5748 5746 5745 5743 5741 5740 5739
5782 5781 5781 5780 5779 5779 5778 5777 5776 5774 5772 5772 5773 5776 5778 5779 5780 5780 5779 5778 5776 5774 5772 5769 5767 5765 5764 5762 5761 5759 5758 5756 5754 5753 5751 5750 5748 5746 5744 5743 5741 5740 5738
5782 5781 5780 5779 5779 5778 5776 5774 5773 5773 5772 5771 5772 5774 5776 5777 5779 5779 5778 5777 5775 5774 5772 5770 5767 5765 5764 5763 5761 5760 5758 5757 5755 5753 5752 5750 5748 5746 5745 5743 5741 5740 5738
5782 5780 5779 5778 5778 5776 5774 5773 5772 5770 5769 5771 5767 5766 5771 5775 5776 5777 5777 5775 5774 5773 5772 5770 5768 5766 5765 5763 5761 5759 5758 5756 5755 5753 5752 5750 5748 5747 5745 5743 5742 5740 5738
5782 5781 5778 5777 5776 5774 5772 5771 5770 5767 5767 5769 5764 5759 5756 5761 5768 5774 5774 5773 5773 5772 5770 5769 5768 5766 5765 5763 5761 5759 5757 5756 5754 5753 5751 5750 5748 5747 5745 5743 5742 5740 5738
5782 5780 5779 5776 5775 5774 5771 5769 5768 5765 5762 5765 5766 5759 5751 5748 5756 5765 5769 5771 5770 5768 5768 5768 5767 5765 5764 5763 5761 5758 5756 5755 5753 5752 5750 5749 5748 5746 5744 5743 5741 5739 5738
5781 5780 5778 5776 5774 5773 5770 5769 5768 5766 5763 5760 5762 5763 5761 5759 5752 5752 5760 5765 5766 5765 5765 5766 5765 5764 5763 5762 5760 5758 5756 5754 5752 5750 5749 5748 5747 5745 5744 5742 5740 5738 5737
5780 5779 5777 5775 5772 5771 5769 5768 5766 5764 5763 5760 5758 5758 5758 5758 5757 5751 5747 5753 5758 5761 5763 5763 5763 5762 5761 5760 5758 5757 5755 5753 5750 5748 5747 5746 5745 5744 5742 5740 5739 5737 5735
5779 5778 5776 5773 5771 5769 5768 5766 5765 5763 5761 5760 5758 5757 5755 5753 5752 5751 5747 5748 5750 5755 5760 5761 5761 5760 5760 5759 5757 5756 5753 5751 5749 5747 5746 5744 5743 5742 5741 5739 5737 5736 5734
5776 5775 5775 5771 5769 5767 5766 5765 5763 5761 5760 5758 5756 5755 5755 5754 5754 5751 5746 5746 5747 5750 5754 5757 5759 5759 5758 5757 5755 5753 5750 5748 5747 5746 5744 5742 5741 5740 5738 5737 5735 5734 5732
5776 5775 5772 5770 5767 5765 5764 5762 5760 5759 5757 5756 5755 5753 5752 5752 5752 5750 5746 5742 5739 5741 5744 5748 5754 5755 5755 5754 5751 5749 5746 5744 5743 5742 5741 5739 5738 5737 5736 5734 5733 5731 5730
5775 5772 5770 5767 5764 5762 5760 5758 5756 5754 5753 5752 5751 5750 5748 5748 5749 5748 5747 5743 5736 5731 5733 5742 5745 5750 5750 5748 5745 5744 5742 5740 5739 5739 5738 5737 5736 5734 5733 5732 5730 5728 5727
5771 5768 5766 5763 5761 5759 5756 5753 5752 5750 5748 5747 5747 5745 5744 5744 5744 5744 5744 5742 5739 5733 5729 5736 5739 5743 5743 5743 5741 5740 5739 5737 5737 5736 5734 5734 5733 5731 5730 5728 5726 5725 5723
5767 5764 5762 5759 5757 5755 5752 5749 5747 5746 5743 5742 5741 5741 5739 5739 5738 5738 5738 5737 5735 5732 5726 5731 5734 5737 5736 5735 5735 5735 5734 5733 5732 5732 5731 5729 5728 5727 5725 5724 5722 5721 5719
5764 5761 5758 5755 5753 5751 5749 5746 5743 5741 5739 5737 5736 5735 5734 5734 5732 5731 5730 5729 5729 5728 5724 5721 5725 5727 5728 5729 5729 5728 5728 5728 5727 5727 5726 5725 5724 5723 5722 5720 5718 5716 5714
5759 5757 5753 5750 5748 5746 5744 5742 5740 5737 5736 5734 5733 5731 5729 5727 5725 5724 5723 5722 5722 5723 5720 5717 5718 5720 5721 5722 5721 5721 5721 5721 5721 5721 5720 5719 5718 5718 5717 5715 5713 5711 5710
5754 5751 5749 5746 5744 5742 5739 5737 5735 5733 5731 5730 5729 5727 5725 5722 5719 5718 5717 5716 5715 5713 5713 5711 5711 5712 5712 5714 5712 5710 5710 5711 5712 5713 5712 5712 5712 5712 5711 5710 5708 5707 5705
5750 5747 5744 5741 5739 5737 5734 5731 5729 5729 5726 5725 5723 5722 5720 5719 5716 5713 5712 5709 5708 5706 5705 5703 5702 5702 5703 5702 5701 5702 5700 5701 5703 5705 5703 5704 5704 5703 5703 5702 5702 5700 5699
5743 5740 5738 5735 5732 5730 5727 5725 5723 5722 5720 5718 5716 5716 5715 5713 5711 5709 5706 5704 5702 5699 5697 5695 5694 5693 5694 5695 5695 5694 5692 5691 5690 5695 5694 5694 5696 5695 5695 5695 5696 5695 5693
5736 5733 5731 5728 5725 5722 5720 5718 5717 5715 5713 5712 5711 5709 5709 5709 5705 5702 5700 5698 5697 5696 5694 5691 5688 5688 5688 5689 5688 5686 5684 5683 5683 5687 5685 5685 5687 5687 5688 5689 5689 5688 5686
5729 5726 5724 5722 5719 5716 5713 5711 5709 5708 5707 5706 5706 5704 5701 5699 5698 5694 5693 5692 5691 5691 5690 5688 5686 5686 5686 5685 5683 5681 5680 5679 5679 5681 5680 5677 5679 5680 5682 5681 5681 5680 5678
5722 5720 5718 5716 5713 5710 5707 5705 5702 5701 5701 5700 5700 5699 5696 5693 5690 5687 5685 5684 5684 5684 5685 5683 5682 5681 5680 5680 5678 5674 5672 5669 5668 5671 5674 5671 5671 5672 5673 5673 5673 5672 5670
5715 5714 5712 5711 5708 5705 5701 5699 5695 5695 5694 5694 5693 5692 5690 5686 5683 5680 5678 5677 5675 5676 5676 5675 5674 5674 5674 5673 5672 5669 5666 5662 5661 5662 5666 5664 5663 5662 5661 5664 5664 5663 5661